Weather Roundup
Issued by NWS

Home | Current Version | Previous Version | Graphics & Text | Print | Product List | Glossary Off
Versions: 1 2 3 4 5 6 7 8 9 10 11 12 13 14 15 16 17 18 19 20 21 22 23 24 25 26 27 28 29 30 31 32 33 34 35 36 37 38 39 40 41 42 43 44 45 46 47 48 49 50

000
NZUS93 KARX 300359
HRRWXR

CURRENT HOURLY OBSERVATIONS ACROSS
MUCH OF THE UPPER MISSISSIPPI VALLEY
NATIONAL WEATHER SERVICE LA CROSSE WI
1100 PM CDT WED JUL 29 2015


...SOUTHEAST MINNESOTA...


CITY           SKY/WX    TMP DP  RH WIND       PRES   REMARKS
ROCHESTER      CLEAR     64  58  80 W8        30.05R
ROCHESTER/MAYO FAIR      70  55  60 W12       30.02S
WINONA         CLEAR     73  55  53 W9        29.99S
AUSTIN         CLEAR     64  57  77 SW5       30.06R
ALBERT LEA     CLEAR     68  55  64 W5        30.06
DODGE CENTER   CLEAR     61  57  88 W7        30.04S
PRESTON        CLEAR     66  56  71 W9        30.05S
OWATONNA       CLEAR     64  57  77 SW9       30.04S
FARIBAULT      CLEAR     66  57  72 SW5       30.03R
$$

...ELSEWHERE IN MINNESOTA...


CITY           SKY/WX    TMP DP  RH WIND       PRES   REMARKS
MINNEAPOLIS    CLEAR     73  56  54 W7        29.98R
INTNL FALLS    MOCLDY    64  55  72 W7        29.79S
DULUTH         PTCLDY    65  53  65 W12       29.86R
RED WING       CLEAR     72  54  53 W8        29.97R
REDWOOD FALLS  CLEAR     72  54  53 W10       30.03R
MANKATO        CLEAR     68  54  60 W10       30.04R
WORTHINGTON    CLEAR     64  55  72 W8        30.11R
FAIRMONT       CLEAR     66  55  68 SW7       30.07S
$$

...SOUTHWEST WISCONSIN...


CITY           SKY/WX    TMP DP  RH WIND       PRES   REMARKS
LA CROSSE      CLEAR     74  55  51 W10       29.98S
PRAIRIE DU CHI CLEAR     67  57  69 CALM      30.03S
BOSCOBEL       CLEAR     64  59  83 CALM      30.03R
LONE ROCK      NOT AVBL
PLATTEVILLE    CLEAR     64  59  81 SW7       30.05S
FORT MC COY    CLEAR     68  53  58 W5        30.00R
VIROQUA        FAIR      65  56  71 SW6       30.03R
WIS DELLS      CLEAR     68  52  56 SW6       30.00S
$$

...ELSEWHERE IN WISCONSIN...


CITY           SKY/WX    TMP DP  RH WIND       PRES   REMARKS
MILWAUKEE      CLEAR     74  53  48 W9        29.98S
MADISON        CLEAR     73  55  53 VRB3      30.00S
GREEN BAY      CLEAR     70  55  59 SW7       29.91S
EAU CLAIRE     NOT AVBL
BLACK RVR FLS  FAIR      67  55  65 SW5       29.97S
MEDFORD        CLEAR     66  56  70 SW8       29.94S
WAUSAU         CLEAR     71  55  56 W12       29.92S
WIS RAPIDS     CLEAR     69  53  56 W7        29.97S
MARSHFIELD     CLEAR     66  54  65 SW9       29.96S
RICE LAKE      CLEAR     66  55  66 SW7       29.95R
$$

...NORTHEAST IOWA...


CITY           SKY/WX    TMP DP  RH WIND       PRES   REMARKS
DECORAH        CLEAR     68  59  73 VRB6      30.04S
MASON CITY     CLEAR     68  59  73 W9        30.09R
CHARLES CITY   CLEAR     66  63  88 W7        30.08S
OELWEIN          N/A     66  61  82 SW6       30.08R
$$

...ELSEWHERE IN IOWA...


CITY           SKY/WX    TMP DP  RH WIND       PRES   REMARKS
DES MOINES     CLEAR     71  61  70 SW7       30.13R
IOWA CITY      CLEAR     67  61  81 W7        30.10S
FORT DODGE     CLEAR     66  61  82 SW5       30.12R
$$

...NORTHERN ILLINOIS...


CITY           SKY/WX    TMP DP  RH WIND       PRES   REMARKS
CHICAGO-OHARE  CLEAR     73  57  57 W8        30.01S
CHICAGO-MIDWAY CLEAR     77  56  48 W7        30.01F
MOLINE         CLEAR     67  61  81 CALM      30.08R
ROCKFORD       CLEAR     68  57  68 W6        30.05S
PEORIA         CLEAR     72  61  68 W5        30.09S
$$

NOTE: "FAIR" INDICATES FEW OR NO CLOUDS BELOW 12,000 FEET WITH NO
SIGNIFICANT WEATHER AND/OR OBSTRUCTIONS TO VISIBILITY. WIND
SPEEDS ARE IN MILES-PER-HOUR.



USA.gov is the U.S. government's official web portal to all federal, state and local government web resources and services.